Mount Holly, NJ

4:19 PM EDT on August 21, 2017 (GMT -0400)
South Jersey Regional

Weather History for KVAY - July, 2013

Change the Weather History Date:

Monday, July 8, 2013

  Actual Average (KPNE) Record (KPNE)
Temperature  
Mean Temperature 78 °F -  
Max Temperature 87 °F 83 °F 95 °F (2014)
Min Temperature 71 °F 63 °F 57 °F (2000)
Cooling Degree Days 12    
Growing Degree Days 28 (Base 50)    
Moisture  
Dew Point 67 °F    
Average Humidity 70    
Maximum Humidity 87    
Minimum Humidity 53    
Precipitation  
Precipitation 0.04 in - - ()
Sea Level Pressure  
Sea Level Pressure 30.05 in    
Wind  
Wind Speed 4 mph (WSW)    
Max Wind Speed 8 mph    
Max Gust Speed -    
Visibility 10 miles    
Events      
Averages and records for this station are not official NWS values.
T = Trace of Precipitation, MM = Missing Value Source: NWS Daily Summary

Daily Weather History Graph

Daily Weather History Graph

Search for Another Location

Airport or City:

Trip Planner

Search our weather history database for the weather conditions in past years. The results will help you decide how hot, cold, wet, or windy it might be!

Date:

Astronomy

Jul. 08, 2013 Rise Set
Actual Time 5:38 AM EDT 8:30 PM EDT
Civil Twilight 5:06 AM EDT 9:02 PM EDT
Nautical Twilight 4:25 AM EDT 9:43 PM EDT
Astronomical Twilight 3:38 AM EDT 10:29 PM EDT
Moon 6:05 AM EDT (7/8) 8:31 PM EDT (7/8)
Length of Visible Light 15h 56m
Length of Day
14h 51m
New Moon, 0% of the Moon is Illuminated
Jul 8
New Moon
Jul 15
First Quarter
Jul 22
Full
Jul 29
Last Quarter
Aug 6
New

Hourly Weather History & Observations

Time (EDT) Temp. Heat Index Dew Point Humidity Pressure Visibility Wind Dir Wind Speed Gust Speed Precip Events Conditions
12:54 AM 75.0 °F - 66.0 °F 73% 30.04 in 10.0 mi West 5.8 mph - N/A   Clear
1:54 AM 73.9 °F - 66.0 °F 76% 30.03 in 10.0 mi West 3.5 mph - N/A   Clear
2:54 AM 73.0 °F - 66.9 °F 81% 30.03 in 10.0 mi SW 3.5 mph - N/A   Clear
3:54 AM 73.0 °F - 66.9 °F 81% 30.03 in 10.0 mi WSW 4.6 mph - N/A   Clear
4:54 AM 71.1 °F - 66.9 °F 87% 30.04 in 10.0 mi Calm Calm - N/A   Clear
5:54 AM 72.0 °F - 68.0 °F 87% 30.06 in 10.0 mi SW 4.6 mph - N/A   Clear
6:54 AM 73.9 °F - 68.0 °F 82% 30.06 in 10.0 mi Variable 4.6 mph - N/A   Clear
7:54 AM 75.9 °F - 66.9 °F 74% 30.06 in 10.0 mi West 5.8 mph - N/A   Clear
8:54 AM 75.9 °F - 68.0 °F 76% 30.07 in 10.0 mi West 6.9 mph - N/A   Clear
9:54 AM 78.1 °F - 68.0 °F 71% 30.06 in 10.0 mi West 4.6 mph - N/A   Clear
10:54 AM 81.0 °F 84.1 °F 69.1 °F 67% 30.06 in 10.0 mi Variable 5.8 mph - N/A   Partly Cloudy
11:54 AM 82.0 °F 84.5 °F 66.9 °F 60% 30.07 in 10.0 mi WSW 6.9 mph - N/A   Partly Cloudy
12:54 PM 82.9 °F 85.8 °F 68.0 °F 60% 30.06 in 10.0 mi WSW 8.1 mph - N/A   Mostly Cloudy
1:54 PM 84.9 °F 88.2 °F 68.0 °F 57% 30.04 in 10.0 mi SW 6.9 mph - N/A   Partly Cloudy
2:54 PM 84.9 °F 87.1 °F 66.0 °F 53% 30.03 in 10.0 mi West 6.9 mph - N/A   Mostly Cloudy
3:54 PM 81.0 °F 84.1 °F 69.1 °F 67% 30.03 in 10.0 mi Calm Calm - 0.04 in   Partly Cloudy
4:54 PM 84.0 °F 86.5 °F 66.9 °F 56% 30.02 in 10.0 mi Calm Calm - N/A   Scattered Clouds
5:54 PM 82.9 °F 87.0 °F 70.0 °F 65% 30.01 in 10.0 mi WSW 6.9 mph - N/A   Scattered Clouds
6:54 PM 82.9 °F 84.4 °F 64.0 °F 53% 30.03 in 10.0 mi West 5.8 mph - N/A   Clear
7:54 PM 80.1 °F 81.2 °F 62.1 °F 54% 30.03 in 10.0 mi SW 4.6 mph - N/A   Clear
8:54 PM 77.0 °F - 64.0 °F 64% 30.04 in 10.0 mi SW 3.5 mph - N/A   Clear
9:54 PM 75.0 °F - 64.9 °F 71% 30.07 in 10.0 mi SW 3.5 mph - N/A   Clear
10:54 PM 73.0 °F - 64.9 °F 76% 30.08 in 10.0 mi Calm Calm - N/A   Clear
11:54 PM 72.0 °F - 66.0 °F 81% 30.07 in 10.0 mi Calm Calm - N/A   Clear